HK6LRQ-22 Weather Reports


time (UTC)temp
C
wind
direction
speed
KPH
gust
KPH
rain 1hr
cm
rain 24hr
cm
rain mn
cm
humidity
%
barometer
mb
20260507213632 23 220 8.0 0.0 0.00 0.00 0.00 72 1010.0
20260507210631 23 220 8.0 0.0 0.00 0.00 0.00 72 1010.0
20260507203630 23 220 8.0 0.0 0.00 0.00 0.00 72 1009.0
20260507200629 23 220 8.0 0.0 0.00 0.00 0.00 72 1010.0
20260507193628 24 220 8.0 0.0 0.00 0.00 0.00 72 1009.0
20260507190627 24 220 8.0 0.0 0.00 0.00 0.00 72 1010.0
20260507183626 23 220 8.0 0.0 0.00 0.00 0.00 72 1010.0
20260507180625 24 220 8.0 0.0 0.00 0.00 0.00 72 1011.0
20260507173624 24 220 8.0 0.0 0.00 0.00 0.00 72 1011.0
20260507170623 24 220 8.0 0.0 0.00 0.00 0.00 72 1013.0
20260507163621 22 220 8.0 0.0 0.00 0.00 0.00 81 1013.0
20260507160620 22 0 1.6 0.0 0.00 0.00 0.00 83 1015.0
20260507153619 21 0 1.6 0.0 0.00 0.00 0.00 83 1015.0
20260507150618 22 0 3.2 0.0 0.00 0.00 0.00 83 1016.0
20260507143617 20 0 3.2 0.0 0.00 0.00 0.00 81 1015.0
20260507140616 20 0 3.2 0.0 0.00 0.00 0.00 81 1016.0
20260507133615 19 0 1.6 0.0 0.00 0.00 0.00 79 1016.0
20260507130614 19 0 1.6 0.0 0.00 0.00 0.00 79 1016.0
20260507123613 15 91 6.4 6.4 0.00 0.00 0.00 81 1016.0
20260507120612 15 91 6.4 6.4 0.00 0.00 0.00 81 1016.0
20260507113611 15 91 6.4 6.4 0.00 0.00 0.00 81 1016.0
20260507110610 15 91 6.4 6.4 0.00 0.00 0.00 81 1016.0
20260507103609 15 91 6.4 6.4 0.00 0.00 0.00 82 1015.0
20260507100608 15 91 6.4 6.4 0.00 0.00 0.00 81 1016.0
20260507093607 15 91 6.4 6.4 0.00 0.00 0.00 81 1015.0
20260507090606 15 91 6.4 6.4 0.00 0.00 0.00 81 1016.0
20260507083605 16 91 6.4 6.4 0.00 0.00 0.00 81 1015.0
20260507080604 16 91 6.4 6.4 0.00 0.00 0.00 81 1016.0
20260507073603 16 91 6.4 6.4 0.00 0.00 0.00 81 1015.0
20260507070602 16 91 6.4 6.4 0.00 0.00 0.00 81 1016.0
20260507063601 16 91 6.4 6.4 0.00 0.00 0.00 81 1015.0
20260507060600 16 91 6.4 6.4 0.00 0.00 0.00 80 1016.0
20260507053559 16 91 6.4 6.4 0.00 0.00 0.00 80 1016.0
20260507050558 16 91 6.4 6.4 0.00 0.00 0.00 80 1017.0
20260507043557 16 91 6.4 6.4 0.00 0.00 0.00 80 1016.0
20260507040556 16 91 6.4 6.4 0.00 0.00 0.00 80 1017.0
20260507033554 16 91 6.4 6.4 0.00 0.00 0.00 80 1016.0
20260507030553 16 91 6.4 6.4 0.00 0.00 0.00 80 1016.0
20260507023552 17 91 6.4 6.4 0.00 0.00 0.00 80 1015.0
20260507020551 17 91 6.4 6.4 0.00 0.00 0.00 80 1015.0
20260507013550 17 91 6.4 6.4 0.00 0.00 0.00 80 1015.0
20260507010549 17 91 6.4 6.4 0.00 0.00 0.00 80 1014.0
20260507003548 18 91 6.4 6.4 0.00 0.00 0.00 80 1014.0
20260507000547 18 91 6.4 6.4 0.00 0.00 0.00 80 1013.0
20260506233546 22 210 12.9 0.0 0.00 0.00 0.00 80 1012.0
20260506230545 22 210 12.9 0.0 0.00 0.00 0.00 80 1011.0
20260506223544 22 210 12.9 0.0 0.00 0.00 0.00 80 1010.0
20260506220543 22 210 12.9 0.0 0.00 0.00 0.00 80 1010.0